Regional Weather Roundup
Issued by NWS Upton, NY

Current Version | Previous Version | Graphics & Text | Print | Product List | Glossary Off
Versions: 1 2 3 4 5 6 7 8 9 10 11 12 13 14 15 16 17 18 19 20 21 22 23 24 25 26 27 28 29 30 31 32 33 34 35 36 37 38 39 40 41 42 43 44 45 46 47 48 49 50

000
ASUS41 KOKX 061608
RWROKX

REGIONAL WEATHER ROUNDUP
NATIONAL WEATHER SERVICE NEW YORK NY
1200 PM EDT MON JUL 06 2015

NOTE: "FAIR" INDICATES FEW OR NO CLOUDS BELOW 12,000 FEET WITH NO
SIGNIFICANT WEATHER AND/OR OBSTRUCTIONS TO VISIBILITY.

NYZ071-072-176-178-NJZ106-104-061700-
NEW YORK CITY METRO AREA


CITY           SKY/WX    TMP DP  RH WIND       PRES   REMARKS
CENTRAL PARK   PTSUNNY   81  64  56 VRB5      30.19S
LAGUARDIA APRT CLOUDY    82  63  52 S13       30.16S
KENNEDY INTL   CLOUDY    79  67  66 S9        30.18F
NEWARK/LIBERTY CLOUDY    82  67  60 S10       30.15F
BRNX BOT. GARD   N/A     81  64  57 N2        30.18F
TETERBORO      PTSUNNY   82  62  50 S12       30.14F
$$

NYZ177-179-078>081-061700-
LONG ISLAND NEW YORK

CITY           SKY/WX    TMP DP  RH WIND       PRES   REMARKS
FARMINGDALE    FAIR      81  66  60 S10       30.18S
ISLIP          PTSUNNY   80  66  62 SW8       30.17S
SHIRLEY        FAIR      80  67  64 S8        30.19S
WESTHAMPTON    FAIR      78  66  66 SW12      30.21R
MONTAUK POINT    N/A     77  69  76 VRB5      30.21R
$$

NYZ052-065-067-061700-
HUDSON VALLEY

CITY           SKY/WX    TMP DP  RH WIND       PRES   REMARKS
WHITE PLAINS   LGT RAIN  77  64  65 S8        30.17F
NEWBURGH       MOSUNNY   79  68  69 VRB6      30.17F
MONTGOMERY     PTSUNNY   80  68  66 VRB5      30.15F
POUGHKEEPSIE   FAIR      80  65  59 CALM      30.15F
ALBANY         FAIR      80  60  50 CALM      30.16F
$$

NJZ001-105-106-008-010-013-015-019>022-104-061700-
NEW JERSEY

CITY           SKY/WX    TMP DP  RH WIND       PRES   REMARKS
NEWARK/LIBERTY CLOUDY    82  67  60 S10       30.15F
TETERBORO      PTSUNNY   82  62  50 S12       30.14F
CALDWELL       PTSUNNY   80  65  59 CALM      30.15F
MORRISTOWN     PTSUNNY   84  70  61 S6        30.16F
SOMERVILLE     FAIR      81  65  58 S7        30.13F
SUSSEX         PTSUNNY   78  67  68 S5        30.16F
ANDOVER          N/A     79  66  64 VRB3      30.17F
TRENTON        CLOUDY    79  68  69 S7        30.15F
MILLVILLE      FAIR      80  72  76 VRB7      30.15F
ATLANTIC CITY  PTSUNNY   80  71  74 S10       30.16F
WRIGHTSTOWN    PTSUNNY   80  70  71 S9        30.13F
TOMS RIVER     PTSUNNY   79  66  65 S7        30.17F
BELMAR         PTSUNNY   79  64  61 SE10      30.17F
$$

PAZ047>061-062-071-061700-
EASTERN PENNSYLVANIA

CITY           SKY/WX    TMP DP  RH WIND       PRES   REMARKS
PHILADELPHIA   CLOUDY    82  70  66 SE7       30.14F
ALLENTOWN      FAIR      82  67  60 SE10      30.15F
SCRANTON       CLOUDY    80  65  59 SW7       30.16S
$$

CTZ002-004>006-009-010-012-RIZ004-006-007-MAZ004-011-015-061700-
SOUTHERN NEW ENGLAND
 IN CT

CITY           SKY/WX    TMP DP  RH WIND       PRES   REMARKS
BRADLEY INTL   PTSUNNY   80  64  58 S5        30.16F
HARTFORD       FAIR      81  67  62 SE9       30.16F
DANBURY        FAIR      80  62  54 SW9       30.18F
WTRBRY/OXFORD  MOSUNNY   79  64  61 S5        30.22R
BRIDGEPORT     FAIR      79  68  69 SW7       30.17S
MERIDEN        FAIR      81  62  52 S8        30.17S
NEW HAVEN      PTSUNNY   78  68  71 VRB5      30.18S
CHESTER        FAIR      81  64  57 S6        30.20R
GROTON         FAIR      73  68  84 S8        30.18R
WILLIMANTIC    FAIR      81  63  54 S6        30.18S

 IN RI

CITY           SKY/WX    TMP DP  RH WIND       PRES   REMARKS
PROVIDENCE     FAIR      82  66  58 SE6       30.18R
BLOCK ISLAND   FAIR      79  66  65 W9        30.20R
WESTERLY       FAIR      79  67  66 S10       30.19R

 IN MA

CITY           SKY/WX    TMP DP  RH WIND       PRES   REMARKS
BOSTON         FAIR      77  59  53 SE8       30.17S
WORCESTER      FAIR      80  53  39 SW8       30.21S
WESTFIELD      FAIR      80  62  54 S5        30.17S
PROVINCETOWN   FAIR      79  19  11 NW3       30.19S
NANTUCKET      FAIR      74  67  78 SW13      30.19S
$$

ANZ330-335-338-340-345-350-353-355-061700-
COASTAL MARINE OBSERVATIONS


STATION/POSITION TIME  SKY/WX   TEMP    WIND        PRES    VSBY  WAVE
                                AIR SEA DIR/SP/G                  HT/PER
                 (UTC)          (F)     (DEG/KT/KT) (MB)    (MI)  (FT/S)
NY HARB ENTRANCE 1550            72 71  140/  4/  6 1021.5          2/ 6
4S FIRE IS       1503               69                N/A           2/ 7
20S FIRE ISLAND  1550            71 71  170/  6/  6 1021.8          2/ 7
GREAT SOUTH BAY  1530            74 76  220/  8/ 10   N/A
23SW MTP         1550            70 69  210/  8/ 10 1022.3          2/ 7
HUDSON CANYON    NOT AVBL
KINGS POINT      1500            77 84  200/  7/  8 1021.1
CENTRAL LI SOUND NOT AVBL
EASTERN LI SOUND 1500            70 65  140/  2/  4   N/A
ROBBINS REEF     1500            74     160/ 10/ 10 1020.6
$$


>>>>>>>>>>>>>>>>>>>>>>>>>>>> KEY <<<<<<<<<<<<<<<<<<<<<<<<<<<
>                                                          <
>     SKY/WX - SKY CONDITION/PRESENT WEATHER               <
>     TMP    - TEMPERATURE IN FAHRENHEIT                   <
>     DP     - DEWPOINT IN FAHRENHEIT                      <
>     RH     - RELATIVE HUMIDITY IN PERCENT                <
>     WIND   - DIRECTION AND SPEED IN MPH                  <
>     PRES   - MEAN SEA LEVEL PRESSURE IN INCHES OF HG     <
>     WCI    - WIND CHILL INDEX                            <
>     VSB    - VISIBILITY IN MILES                         <
>     HX     - HEAT INDEX                                  <
>     TC     - TEMPERATURE IN CELSIUS                      <
>     VRB    - VARIABLE WIND DIRECTION                     <
>                                                          <
>>>>>>>>>>>>>>>>>>>>>>>>>>>> KEY <<<<<<<<<<<<<<<<<<<<<<<<<<<





USA.gov is the U.S. government's official web portal to all federal, state and local government web resources and services.